• In Hungary
  • List of Countries
  • For 7 days
  • Water Temperature
  • Satellite Maps
  • Weather Map
  • News
  • Weather Widgets
  • user-avatar
    Login

    Hourly Weather Rysli

    Today, 16 November, Friday

    Time Temperature Precipitation Wind Pressure Humidity
    00:00 -5°C° 0 mm 2 mps 772 mmHg 28%
    01:00 -5°C° 0 mm 2 mps 772 mmHg 28%
    02:00 -5°C° 0 mm 2 mps 772 mmHg 28%
    03:00 -3°C° 0 mm 1 mps 773 mmHg 28%
    04:00 -3°C° 0 mm 1 mps 773 mmHg 28%
    05:00 -4°C° 0 mm 1 mps 773 mmHg 28%
    06:00 -4°C° 0 mm 1 mps 773 mmHg 27%
    07:00 -3°C° 0 mm 1 mps 773 mmHg 27%
    08:00 -3°C° 0 mm 1 mps 773 mmHg 26%
    09:00 -3°C° 0 mm 1 mps 774 mmHg 25%
    10:00 -2°C° 0 mm 1 mps 774 mmHg 23%
    11:00 0°C° 0 mm 1 mps 774 mmHg 20%
    12:00 +1°C° 0 mm 1 mps 774 mmHg 18%
    13:00 +1°C° 0 mm 1 mps 773 mmHg 19%
    14:00 +1°C° 0 mm 1 mps 773 mmHg 19%
    15:00 +1°C° 0 mm 1 mps 773 mmHg 20%
    16:00 0°C° 0 mm 1 mps 773 mmHg 21%
    17:00 0°C° 0 mm 1 mps 773 mmHg 21%
    18:00 -1°C° 0 mm 1 mps 773 mmHg 22%
    19:00 -1°C° 0 mm 1 mps 773 mmHg 21%
    20:00 -1°C° 0 mm 1 mps 773 mmHg 21%
    21:00 -1°C° 0 mm 1 mps 773 mmHg 21%
    22:00 -2°C° 0 mm 1 mps 773 mmHg 21%
    23:00 -3°C° 0 mm 0 mps 773 mmHg 21%

    Tomorrow, 17 November, Saturday

    Time Temperature Precipitation Wind Pressure Humidity
    00:00 -3°C° 0 mm 0 mps 772 mmHg 21%
    01:00 -3°C° 0 mm 0 mps 772 mmHg 21%
    02:00 -2°C° 0 mm 1 mps 772 mmHg 21%
    03:00 -2°C° 0 mm 1 mps 772 mmHg 20%
    04:00 -2°C° 0 mm 1 mps 772 mmHg 21%
    05:00 -2°C° 0 mm 1 mps 771 mmHg 21%
    06:00 -2°C° 0 mm 1 mps 771 mmHg 21%
    07:00 -2°C° 0 mm 1 mps 771 mmHg 21%
    08:00 -2°C° 0 mm 1 mps 770 mmHg 20%
    09:00 -4°C° 0 mm 2 mps 770 mmHg 20%
    10:00 -3°C° 0 mm 2 mps 770 mmHg 19%
    11:00 -2°C° 0 mm 2 mps 769 mmHg 18%
    12:00 +1°C° 0 mm 2 mps 768 mmHg 16%
    13:00 0°C° 0 mm 3 mps 768 mmHg 17%
    14:00 0°C° 0 mm 3 mps 767 mmHg 18%
    15:00 0°C° 0 mm 3 mps 766 mmHg 19%
    16:00 -1°C° 0 mm 3 mps 766 mmHg 20%
    17:00 -1°C° 0 mm 3 mps 765 mmHg 21%
    18:00 -2°C° 0 mm 3 mps 764 mmHg 22%
    19:00 -2°C° 0 mm 3 mps 764 mmHg 22%
    20:00 -3°C° 0 mm 4 mps 763 mmHg 23%
    21:00 -3°C° 0 mm 4 mps 762 mmHg 23%
    22:00 -3°C° 0 mm 4 mps 762 mmHg 23%
    23:00 -3°C° 0 mm 4 mps 761 mmHg 23%

    Day after tomorrow, 18 November, Sunday

    Time Temperature Precipitation Wind Pressure Humidity
    00:00 -3°C° 0 mm 4 mps 760 mmHg 23%
    01:00 -3°C° 0 mm 4 mps 760 mmHg 24%
    02:00 -3°C° 0 mm 4 mps 759 mmHg 24%
    03:00 -3°C° 0 mm 4 mps 759 mmHg 24%
    04:00 -3°C° 0 mm 4 mps 758 mmHg 25%
    05:00 -3°C° 0 mm 4 mps 757 mmHg 25%
    06:00 -3°C° 0 mm 4 mps 757 mmHg 25%
    07:00 -3°C° 0 mm 4 mps 756 mmHg 26%
    08:00 -3°C° 0 mm 4 mps 756 mmHg 27%
    09:00 -2°C° 0 mm 3 mps 756 mmHg 28%
    10:00 -3°C° 0 mm 4 mps 756 mmHg 28%
    11:00 -2°C° 0 mm 4 mps 756 mmHg 27%
    12:00 -1°C° 0 mm 4 mps 756 mmHg 27%
    13:00 0°C° 0 mm 3 mps 756 mmHg 27%
    14:00 0°C° 0 mm 3 mps 756 mmHg 28%
    15:00 0°C° 0 mm 3 mps 756 mmHg 28%
    16:00 -1°C° 0 mm 2 mps 756 mmHg 30%
    17:00 -2°C° 0 mm 2 mps 756 mmHg 32%
    18:00 -2°C° 0 mm 2 mps 756 mmHg 35%
    19:00 -3°C° 0 mm 2 mps 756 mmHg 36%
    20:00 -3°C° 0 mm 2 mps 756 mmHg 38%
    21:00 -3°C° 0 mm 2 mps 756 mmHg 40%
    22:00 -3°C° 0 mm 2 mps 757 mmHg 41%
    23:00 -3°C° 0 mm 2 mps 757 mmHg 43%

    19 November, Monday

    Time Temperature Precipitation Wind Pressure Humidity
    00:00 -3°C° 0 mm 2 mps 757 mmHg 44%
    01:00 -4°C° 0 mm 2 mps 758 mmHg 45%
    02:00 -4°C° 0 mm 2 mps 758 mmHg 46%
    03:00 -4°C° 0 mm 2 mps 758 mmHg 47%
    04:00 -4°C° 0 mm 2 mps 759 mmHg 48%
    05:00 -4°C° 0 mm 2 mps 759 mmHg 49%
    06:00 -4°C° 0 mm 2 mps 759 mmHg 49%
    07:00 -4°C° 0 mm 2 mps 760 mmHg 49%
    08:00 -4°C° 0 mm 2 mps 760 mmHg 48%
    09:00 -4°C° 0 mm 2 mps 761 mmHg 48%
    10:00 -3°C° 0 mm 2 mps 761 mmHg 45%
    11:00 -2°C° 0 mm 2 mps 762 mmHg 41%
    12:00 -1°C° 0 mm 2 mps 763 mmHg 38%
    13:00 -1°C° 0 mm 2 mps 763 mmHg 38%
    14:00 -1°C° 0 mm 2 mps 763 mmHg 39%
    15:00 -1°C° 0 mm 2 mps 764 mmHg 39%
    16:00 -2°C° 0 mm 2 mps 764 mmHg 40%
    17:00 -2°C° 0 mm 2 mps 764 mmHg 41%
    18:00 -3°C° 0 mm 2 mps 765 mmHg 42%
    19:00 -3°C° 0 mm 2 mps 765 mmHg 42%
    20:00 -3°C° 0 mm 2 mps 765 mmHg 41%
    21:00 -3°C° 0 mm 2 mps 765 mmHg 40%
    22:00 -3°C° 0 mm 2 mps 766 mmHg 40%
    23:00 -4°C° 0 mm 2 mps 766 mmHg 39%

    20 November, Tuesday

    Time Temperature Precipitation Wind Pressure Humidity
    00:00 -4°C° 0 mm 2 mps 766 mmHg 38%
    01:00 -4°C° 0 mm 2 mps 767 mmHg 38%
    02:00 -4°C° 0 mm 2 mps 767 mmHg 38%
    03:00 -4°C° 0 mm 2 mps 767 mmHg 38%
    04:00 -4°C° 0 mm 2 mps 767 mmHg 38%
    05:00 -4°C° 0 mm 2 mps 767 mmHg 39%
    06:00 -4°C° 0 mm 2 mps 767 mmHg 39%
    07:00 -4°C° 0 mm 2 mps 767 mmHg 40%
    08:00 -4°C° 0 mm 2 mps 767 mmHg 41%
    09:00 -4°C° 0 mm 2 mps 767 mmHg 41%
    10:00 -3°C° 0 mm 2 mps 767 mmHg 39%
    11:00 -2°C° 0 mm 2 mps 767 mmHg 36%
    12:00 -1°C° 0 mm 2 mps 766 mmHg 34%
    13:00 -1°C° 0 mm 2 mps 766 mmHg 35%
    14:00 -1°C° 0 mm 2 mps 766 mmHg 36%
    15:00 -2°C° 0 mm 2 mps 766 mmHg 37%
    16:00 -2°C° 0 mm 2 mps 765 mmHg 37%
    17:00 -2°C° 0 mm 2 mps 765 mmHg 37%
    18:00 -2°C° 0 mm 2 mps 765 mmHg 38%
    19:00 -3°C° 0 mm 2 mps 765 mmHg 37%
    20:00 -3°C° 0 mm 2 mps 765 mmHg 36%
    21:00 -3°C° 0 mm 2 mps 764 mmHg 35%
    22:00 -3°C° 0 mm 2 mps 764 mmHg 34%
    23:00 -3°C° 0 mm 2 mps 764 mmHg 34%

    21 November, Wednesday

    Time Temperature Precipitation Wind Pressure Humidity
    00:00 -3°C° 0 mm 2 mps 764 mmHg 33%
    01:00 -3°C° 0 mm 2 mps 764 mmHg 33%
    02:00 -3°C° 0 mm 2 mps 763 mmHg 33%
    03:00 -3°C° 0 mm 2 mps 763 mmHg 33%
    04:00 -4°C° 0 mm 2 mps 763 mmHg 34%
    05:00 -4°C° 0 mm 2 mps 762 mmHg 34%
    06:00 -4°C° 0 mm 2 mps 762 mmHg 35%
    07:00 -4°C° 0 mm 2 mps 762 mmHg 36%
    08:00 -4°C° 0 mm 2 mps 762 mmHg 37%
    09:00 -4°C° 0 mm 2 mps 762 mmHg 38%
    10:00 -3°C° 0 mm 2 mps 762 mmHg 39%
    11:00 -2°C° 0 mm 2 mps 761 mmHg 39%
    12:00 -1°C° 0 mm 2 mps 761 mmHg 40%
    13:00 -1°C° 0 mm 2 mps 761 mmHg 42%
    14:00 -1°C° 0 mm 2 mps 760 mmHg 44%
    15:00 -1°C° 0 mm 2 mps 760 mmHg 46%
    16:00 -1°C° 0 mm 2 mps 759 mmHg 48%
    17:00 -2°C° 0 mm 3 mps 759 mmHg 50%
    18:00 -2°C° 0 mm 3 mps 759 mmHg 52%
    19:00 -2°C° 0 mm 3 mps 758 mmHg 54%
    20:00 -2°C° 0 mm 3 mps 758 mmHg 56%
    21:00 -2°C° 0 mm 3 mps 758 mmHg 57%
    22:00 -2°C° 0.2 mm 3 mps 757 mmHg 63%
    23:00 -2°C° 0.2 mm 3 mps 757 mmHg 70%
    Show more